SCP
0 0 0 0 0 0 0 0 0 0 0 0 0 0 0 0 0 0 0 0 0 0 0 0 0 0 0 0 0 0 0 0 0 0 0 0 0 0 0 0 0 0 0 0
0 0 0 0 0 0 0 0 0 0 0 0 0 0 0 0 0 0 0 0 0 0 0 0 0 0 0 0 0 0 0 0 0 0 0 0 0 0 0 0 0 0 0 0
0 0 0 0 0 0 0 0 0 0 0 0 0 0 0 0 0 0 0 0 0 0 0 0 0 0 0 0 0 0 0 0 0 0 0 0 0 0 0 0 0 0 0 0
0 0 0 0 0 0 0 0 0 0 0 0 0 0 0 0 0 0 0 0 0 0 0 0 0 0 0 0 0 0 0 0 0 0 0 0 0 0 0 0 0 0 0 0
0 0 0 0 0 0 0 0 0 0 0 0 0 0 0 0 0 0 0 0 0 0 0 0 0 0 0 0 0 0 0 0 0 0 0 0 0 0 0 0 0 0 0 0
0 0 0 0 0 0 0 0 0 0 0 0 0 0 0 0 0 0 0 0 0 0 0 0 0 0 0 0 0 0 0 0 0 0 0 0 0 0 0 0 0 0 0 0
0 0 0 0 0 0 0 0 0 0 0 0 0 0 0 0 0 0 0 0 0 0 0 0 0 0 0 0 0 0 0 0 0 0 0 0 0 0 0 0 0 0 0 0
0 0 0 0 0 0 0 0 0 0 0 0 0 0 0 0 0 0 0 0 0 0 0 0 0 0 0 0 0 0 0 0 0 0 0 0 0 0 0 0 0 0 0 0
0 0 0 0 0 0 0 0 0 0 0 0 0 0 0 0 0 0 0 0 0 0 0 0 0 0 0 0 0 0 0 0 0 0 0 0 0 0 0 0 0 0 0 0
0 0 0 0 0 0 0 0 0 0 0 0 0 0 0 0 0 0 0 0 0 0 0 0 0 0 0 0 0 0 0 0 0 0 0 0 0 0 0 0 0 0 0 0
0 0 0 0 0 0 0 0 0 0 0 0 0 0 0 0 0 0 0 0 0 0 0 0 0 0 0 0 0 0 0 0 0 0 0 0 0 0 0 0 0 0 0 0
0 0 0 0 0 0 0 0 0 0 0 0 0 0 0 0 0 0 0 0 0 0 0 0 0 0 0 0 0 0 0 0 0 0 0 0 0 0 0 0 0 0 0 0
0 0 0 0 0 0 0 0 0 0 0 0 0 0 0 0 0 0 0 0 0 0 0 0 0 0 0 0 0 0 0 0 0 0 0 0 0 0 0 0 0 0 0 0
0 0 0 0 0 0 0 0 0 0 0 0 0 0 0 0 0 0 0 0 0 0 0 0 0 0 0 0 0 0 0 0 0 0 0 0 0 0 0 0 0 0 0 0
0 0 0 0 0 0 0 0 0 0 0 0 0 0 0 0 0 0 0 0 0 0 0 0 0 0 0 0 0 0 0 0 0 0 0 0 0 0 0 0 0 0 0 0
0 0 0 0 0 0 0 0 0 0 0 0 0 0 0 0 0 0 0 0 0 0 0 0 0 0 0 0 0 0 0 0 0 0 0 0 0 0 0 0 0 0 0 0
0 0 0 0 0 0 0 0 0 0 0 0 0 0 0 0 0 0 0 0 0 0 0 0 0 0 0 0 0 0 0 0 0 0 0 0 0 0 0 0 0 0 0 0
0 0 0 0 0 0 0 0 0 0 0 0 0 0 0 0 0 0 0 0 0 0 0 0 0 0 0 0 0 0 0 0 0 0 0 0 0 0 0 0 0 0 0 0
0 0 0 0 0 0 0 0 0 0 0 0 0 0 0 0 0 0 0 0 0 0 0 0 0 0 0 0 -0 -0 -0 0 0 0 0 0 0 0 0 0 0 0 0 0
0 0 0 0 0 0 0 0 0 0 0 0 0 0 0 0 0 0 0 0 0 0 0 0 0 0 -0 -0 -0 -0 0 0 0 0 0 0 0 0 0 0 0 0 0 0
0 0 0 0 0 0 0 0 0 0 0 0 0 0 0 0 0 0 0 0 0 0 0 0 0 0 0 -0 -0 0 0 0 0 0 0 0 0 0 0 0 0 0 0 0
0 0 0 0 0 0 0 0 0 0 0 0 0 0 0 0 0 0 0 0 0 0 0 0 0 0 0 0 0 0 0 0 0 0 0 0 0 0 0 0 0 0 0 0
0 0 0 0 0 0 0 0 0 0 0 0 0 0 0 0 0 0 0 0 0 0 0 0 0 0 0 0 0 0 0 0 0 0 0 0 0 0 0 0 0 0 0 0
0 0 0 0 0 0 0 0 0 0 0 0 0 0 0 0 0 0 0 0 0 0 0 0 0 0 0 0 -0 -0 0 0 0 0 0 0 0 0 0 0 0 0 0 0
0 0 0 0 0 0 0 0 0 0 0 0 0 0 0 0 0 0 0 0 0 0 0 0 0 0 0 0 0 0 0 0 0 0 0 0 0 0 0 0 0 0 0 0
0 0 0 0 0 0 0 0 0 0 0 0 0 0 0 0 0 0 0 0 0 0 0 0 0 0 0 0 0 0 0 0 0 0 0 0 0 0 0 0 0 0 0 0
Wind_Speed
3 5 6 10 9 6 7 5 3 3 2 5 6 9 11 9 6 9 10 10 12 14 13 9 11 12 11 12 13 15 15 14 11 8 9 9 10 8 7 8 11 13 13 14
4 4 8 6 4 3 2 2 2 1 1 2 4 10 10 9 9 11 11 12 13 12 10 9 9 9 12 13 14 14 15 14 13 12 9 6 5 4 5 5 8 12 13 14
8 6 6 6 5 6 5 5 5 3 0 1 3 9 7 7 5 7 9 10 10 12 13 10 8 9 10 12 14 14 15 15 13 11 5 3 2 2 4 6 8 10 11 13
5 4 5 6 6 7 5 5 5 4 2 3 0 6 8 6 8 8 9 8 10 9 8 7 6 7 9 12 10 11 11 11 11 10 9 10 9 10 10 6 5 6 8 10
7 5 6 6 8 8 6 2 3 2 3 1 1 3 10 5 6 11 11 9 7 5 4 5 5 6 6 6 6 7 7 8 9 10 11 11 11 9 4 4 5 6 6 8
4 2 5 7 4 6 7 7 8 6 5 3 5 6 10 6 9 8 7 5 3 1 1 2 2 2 2 0 2 4 6 6 7 9 10 11 12 9 7 6 6 6 5 7
2 1 0 4 7 3 6 7 3 2 2 8 3 5 11 10 8 7 7 4 1 2 2 2 3 3 3 1 1 2 4 5 6 7 9 10 10 10 11 9 8 7 6 7
9 6 7 6 8 9 7 10 10 8 7 6 3 9 11 8 6 5 3 0 3 3 2 2 2 2 2 1 0 2 3 4 5 6 7 7 8 7 7 9 8 9 8 8
11 8 3 5 4 13 8 6 7 7 3 2 7 8 10 5 3 2 1 3 3 2 2 2 3 2 2 2 1 2 3 3 4 5 5 6 7 7 8 7 7 7 7 6
9 6 2 2 3 1 8 10 6 6 6 6 7 6 6 4 6 3 1 3 3 2 3 3 3 2 2 2 2 1 3 4 4 4 5 5 6 7 7 6 8 8 7 7
7 8 3 4 9 11 7 6 6 6 6 8 6 9 8 9 6 3 2 2 2 2 2 3 4 3 3 2 2 2 2 3 3 4 5 5 6 6 6 7 8 8 7 8
6 7 5 7 4 5 7 9 10 9 7 6 5 10 5 5 3 5 3 2 2 3 3 3 4 4 4 4 3 3 3 4 4 4 4 6 6 5 7 8 8 7 8 8
8 8 5 0 1 3 4 4 6 5 6 7 8 10 2 3 4 4 4 3 3 4 4 4 4 4 4 5 5 4 4 5 4 4 5 6 6 7 8 9 8 7 8 8
6 5 8 12 7 8 6 6 7 7 7 8 13 9 4 2 1 2 2 2 2 3 4 5 5 5 5 5 5 5 6 5 5 5 5 7 8 8 8 7 7 7 7 8
5 4 3 2 3 4 5 7 8 10 10 11 11 10 8 4 2 2 2 2 3 4 4 5 5 5 6 6 6 6 6 6 5 5 6 8 8 7 7 7 7 7 7 8
4 5 4 2 2 2 4 7 8 9 8 9 8 12 5 3 1 1 2 3 4 4 5 5 5 6 7 7 7 7 7 7 6 6 7 7 7 6 7 7 7 7 7 7
4 6 6 4 3 2 10 12 12 8 8 8 12 11 2 2 0 1 2 4 3 3 4 5 5 5 6 6 6 7 8 8 7 7 7 7 6 7 7 7 6 7 7 6
7 6 4 4 5 10 9 4 9 10 10 10 10 5 2 3 3 5 4 3 2 2 4 5 5 6 5 5 6 6 7 7 7 8 8 7 7 8 7 6 7 7 5 6
6 7 5 5 5 7 9 5 7 9 9 7 9 5 1 2 4 2 2 1 1 2 3 4 4 5 6 6 6 7 7 6 7 7 8 8 8 8 8 8 7 6 5 5
5 6 6 5 6 10 10 4 3 5 7 4 5 4 2 4 3 4 1 2 3 3 3 3 4 4 5 6 6 7 7 7 8 8 9 8 7 8 8 8 7 5 4 5
8 6 8 7 7 10 9 4 4 7 9 4 5 5 4 3 4 4 3 3 3 4 4 4 4 4 5 5 5 6 7 8 8 8 9 8 7 7 7 6 5 4 4 3
11 9 9 7 8 13 5 6 8 6 4 5 5 4 3 3 4 4 4 4 5 5 4 4 4 5 4 4 4 7 8 7 7 8 9 8 7 6 5 5 4 3 3 3
9 10 8 10 10 3 4 5 4 6 6 4 4 3 2 2 3 4 4 4 5 5 5 4 5 6 5 3 3 7 8 7 8 8 8 8 7 5 4 4 4 3 2 2
4 3 5 4 5 2 2 4 4 5 5 4 3 3 2 3 5 5 5 5 5 5 5 4 5 6 7 5 4 5 7 7 7 8 8 7 6 5 4 3 2 2 2 2
7 6 5 5 2 2 1 3 4 3 2 1 1 2 3 4 5 5 6 6 6 5 4 4 5 7 8 6 6 5 6 6 7 8 7 6 5 5 3 2 2 2 2 2
6 8 9 7 7 6 5 4 4 4 3 2 2 3 2 3 5 6 6 6 5 6 5 5 5 6 7 7 7 6 5 5 7 7 6 5 4 3 2 2 1 2 1 2
Wind_Direction
111 102 175 195 190 177 163 162 197 241 210 169 225 257 271 280 271 255 249 243 242 243 245 237 225 217 211 207 204 203 202 201 191 189 195 200 207 202 202 203 199 196 194 192
87 219 212 192 188 182 183 184 196 301 16 180 256 269 266 261 247 237 238 241 242 250 261 250 234 216 208 207 206 205 204 199 197 201 200 199 195 197 206 202 203 201 198 194
168 219 186 161 173 186 208 197 199 197 28 349 309 301 293 282 260 263 249 243 243 239 247 251 240 225 214 212 208 206 205 201 199 193 170 154 150 165 195 210 211 207 202 197
204 229 145 161 186 160 206 208 180 162 131 281 345 291 287 286 303 289 276 261 249 247 248 252 249 238 222 220 212 208 203 198 193 183 181 183 197 211 215 209 207 203 204 202
215 198 167 178 193 166 180 116 121 114 144 294 294 244 280 298 275 267 265 263 258 254 248 260 265 253 242 225 208 203 195 194 187 187 192 196 210 218 206 191 199 203 205 209
201 202 182 182 151 151 128 73 56 49 69 269 218 199 273 243 226 250 266 274 278 331 19 351 335 340 318 249 182 180 184 193 186 190 195 202 211 208 200 201 205 207 208 213
170 233 157 129 99 85 113 99 51 337 335 249 239 220 249 248 243 248 268 292 347 48 48 9 11 18 20 40 133 163 177 194 190 193 203 208 212 206 210 208 208 207 210 215
167 217 209 184 156 161 176 151 165 192 221 265 260 231 251 260 273 257 247 109 68 45 14 354 350 359 353 360 121 173 191 206 199 202 211 213 212 211 220 216 212 213 217 216
176 211 210 199 177 146 153 185 158 131 132 272 261 271 298 288 260 238 127 75 59 35 15 354 348 346 326 309 265 220 212 222 221 218 218 219 216 217 222 219 217 222 221 212
152 184 221 203 97 25 152 147 121 145 173 234 266 252 238 233 220 229 74 66 53 36 15 356 342 331 323 305 279 248 230 235 237 229 224 225 223 222 223 220 224 226 223 213
151 153 161 158 185 174 144 162 159 158 168 174 247 260 221 212 208 176 131 101 70 32 360 342 337 337 333 327 306 284 268 260 257 246 240 240 238 230 227 230 232 229 226 216
164 141 175 219 235 198 183 178 156 168 207 195 211 260 254 196 169 135 120 79 34 21 7 353 348 351 349 337 327 313 294 279 270 261 253 250 248 241 238 240 239 230 229 223
150 142 134 22 246 195 206 201 185 148 148 179 202 257 301 116 105 103 93 56 24 20 15 8 5 355 342 335 333 323 311 298 292 279 267 265 260 251 248 248 245 235 231 229
133 146 179 195 192 171 186 195 181 159 189 215 224 227 205 190 47 31 45 44 40 27 19 14 2 353 348 344 337 329 321 316 313 301 281 272 266 260 259 259 252 243 236 233
122 162 166 147 126 142 178 193 192 201 210 215 235 231 224 222 255 299 340 30 47 33 18 8 356 344 341 341 338 334 324 324 321 307 288 277 278 276 272 266 260 253 243 238
123 149 146 184 180 167 234 228 214 220 222 234 257 260 229 205 231 343 12 40 37 20 9 359 351 346 341 337 332 330 327 326 322 305 291 289 290 286 277 271 265 258 251 244
147 141 158 198 156 127 246 221 205 211 207 199 235 248 212 245 214 124 86 66 57 26 359 348 340 332 328 329 329 326 322 323 323 312 305 303 299 291 284 280 272 262 256 248
153 145 151 147 145 219 238 196 194 208 225 216 231 239 184 183 135 109 104 98 55 343 330 326 326 323 321 321 322 318 316 317 315 312 311 311 308 300 295 286 274 267 258 248
154 148 148 160 199 266 287 242 183 189 232 226 228 227 192 153 127 142 111 88 283 294 299 300 305 305 311 317 320 319 316 316 313 310 310 310 306 301 298 290 283 275 265 257
159 149 149 156 178 227 244 234 182 139 242 226 181 174 159 130 164 217 261 303 285 289 288 292 298 302 308 313 319 316 314 315 312 310 307 305 299 293 290 287 286 280 264 259
172 180 188 184 207 248 244 221 128 178 230 170 145 142 140 155 193 234 280 290 286 286 285 288 292 293 296 305 311 305 306 304 305 307 305 302 298 292 288 289 285 282 275 269
176 181 192 180 206 242 209 156 184 196 134 136 140 153 166 200 235 253 265 273 283 289 291 292 289 289 291 299 302 299 298 303 309 307 303 301 299 297 294 292 294 288 275 269
197 188 183 192 211 230 160 167 150 130 136 153 163 183 192 231 252 260 264 271 276 278 284 284 284 292 295 294 289 291 299 312 310 305 300 299 299 295 290 285 286 290 275 262
237 166 158 203 233 195 134 121 120 130 145 163 177 194 208 247 269 277 279 282 284 283 285 287 293 294 297 300 290 281 297 307 301 296 296 295 294 294 292 285 272 265 264 266
203 171 175 206 193 116 159 162 153 150 145 157 217 230 246 265 276 280 287 290 291 293 294 293 289 289 294 304 298 298 304 308 297 289 286 287 283 280 285 283 270 262 248 224
196 176 175 202 191 172 191 185 171 173 195 218 243 264 271 269 282 294 292 295 301 304 311 307 299 295 298 302 300 303 307 304 293 290 286 284 281 274 264 262 320 43 56 63